www.pogodaiklimat.ru

Погода и климат >> Архив погоды >> Словакия >> Братислава-Колиба


ПОГОДА в Братислава-Колибе

  • Прогноз погоды в Братислава-Колибе
  • Монитор погоды в Братислава-Колибе

АРХИВ ПОГОДЫ в Братислава-Колибе

Время (UTC), дата Ветер
(напр.,м/с)
 
Видим.   Явления Облачность Т
(С)
Тd
(С)
f
(%)
Тe
(С)
Тes
(С)
Комфортность P
(гПа)
Po
(гПа)
Тmin
(С)
Tmax
(С)
R
(мм)
R24
(мм)
S
(см)
13 15.09 н/о н/о +23.0 +11.4 48 1023.4 990.2
14 15.09 н/о н/о +24.1 +10.8 43 1022.3 989.3
15 15.09 н/о н/о +24.1 +11.8 46 1021.5 988.5
16 15.09 н/о н/о +23.1 +12.1 50 1020.9 987.8
17 15.09 н/о н/о +21.0 +12.7 59 1020.6 987.3
18 15.09 нст 1 н/о н/о +19.6 +12.1 62 +22 +22 комфорт 1020.9 987.4 +24.2
19 15.09 н/о н/о +18.4 +12.4 68 1020.9 987.3
20 15.09 н/о н/о +18.0 +12.0 68 1020.8 987.1
21 15.09 н/о н/о +17.4 +11.9 70 1020.6 986.9
22 15.09 н/о н/о +16.9 +11.8 72 1020.5 986.7
23 15.09 С 2 н/о н/о +16.6 +11.5 72 +17 +17 1020.6 986.7
00 16.09 нст 1 н/о н/о +16.2 +11.8 75 +17 +17 1019.9 986.1
01 16.09 СВ 1 н/о н/о +15.5 +11.5 77 +16 +16 1019.9 985.9
02 16.09 н/о н/о +14.6 +11.9 84 1019.7 985.7
03 16.09 н/о н/о +15.1 +13.8 92 1019.3 985.4
04 16.09 н/о н/о +16.4 +14.0 86 1018.9 985.1
05 16.09 З 1 20 км 3/0
[Ac lent Ci sp]
+16.1 +14.1 88 +17 +17 1018.9 985.1
06 16.09 нст 1 15 км 3/0
[Ac cast Ci sp]
+16.4 +13.3 82 +17 +18 1019.1 985.3 +14.3
07 16.09 15 км 1/0
[Ac cast Ci sp]
+18.8 +14.3 75 1019.0 985.5
08 16.09 СЗ 3 15 км 3/1 600 м
[Sc Ac lent Ci sp]
+21.1 +14.0 64 +24 +27 комфорт 1018.6 985.4
09 16.09 нст 2 20 км 5/0
[Ac lent Ci sp]
+22.0 +14.4 62 +25 +32 комфорт 1018.4 985.3
10 16.09 З 3 30 км 6/0
[Ac lent Ci sp]
+22.8 +13.9 57 +26 +33 жарко 1017.9 984.9
11 16.09 З 3 55 км 6/0
[Ac cast Ci sp]
+24.7 +13.3 49 +27 +34 жарко 1017.4 984.6
12 16.09 З 3 55 км 8/0
[Ac cast Ci sp]
+24.4 +10.3 41 +25 +32 комфорт 1016.6 983.8
13 16.09 55 км 8/1 1300 м
[Cu hum Ac lent Ci sp]
+24.5 +10.8 42 1016.1 983.3
14 16.09 55 км 5/1 1380 м
[Cu med, cong Ac lent Ci sp]
+26.0 +9.8 36 1015.4 982.7
15 16.09 н/о н/о +26.6 +10.3 36 1014.9 982.3
16 16.09 н/о н/о +24.5 +10.0 40 1014.8 982.1
17 16.09 н/о н/о +22.6 +10.4 46 1014.8 981.8
18 16.09 штиль 0 н/о н/о +20.9 +10.4 51 +22 +22 комфорт 1014.8 981.7 +26.9
19 16.09 н/о н/о +20.8 +10.9 53 1014.8 981.7
20 16.09 н/о н/о +20.2 +10.6 54 1015.1 981.8
21 16.09 н/о н/о +19.9 +10.1 53 1015.4 982.1
22 16.09 н/о н/о +19.4 +9.6 53 1015.0 981.7
23 16.09 н/о н/о +19.5 +8.8 50 1014.8 981.4
00 17.09 нст 2 н/о н/о +19.1 +10.1 56 +20 +20 1014.8 981.4
01 17.09 З 2 н/о н/о +18.6 +11.0 61 +20 +20 1014.7 981.3
02 17.09 н/о н/о +17.9 +11.7 67 1014.2 980.7
03 17.09 СЗ 3 н/о н/о +18.0 +10.6 62 +18 +18 1014.2 980.7
04 17.09 н/о н/о +16.1 +12.8 81 1014.4 980.7
05 17.09 25 км 8/3 1500 м
[Sc diur, vesp Ac As Ci fib]
+16.1 +12.6 80 1014.7 981.0
06 17.09 нст 1 35 км 8/1 1500 м
[Sc Ac lent Ci fib]
+15.9 +13.2 84 +17 +17 1015.0 981.3 +15.8
07 17.09 25 км 8/3 600 м
[Cu Sc Ac lent Ci fib]
+17.3 +12.6 74 1015.4 981.8
08 17.09 СЗ 2 30 км 9/9 600 м
[Sc]
+17.1 +12.8 76 +17 +18 1015.8 982.2
09 17.09 С 2 40 км 9/9 360 м
[Sc]
+16.6 +13.3 81 +17 +18 1016.1 982.5
10 17.09 С 2 40 км в посл. час дождь 9/9 450 м
[Cu Sc]
+15.9 +12.3 79 +16 +17 1016.2 982.5
11 17.09 50 км 9/9 900 м
[Sc]
+16.2 +10.5 69 1015.8 982.1
12 17.09 нст 2 50 км {дождь} 9/9 600 м
[Cu Sc Ac As]
+16.5 +11.6 73 +17 +18 1015.1 981.4 0.0
13 17.09 СЗ 3 50 км 9/4 600 м
[Cu Sc Ac lent]
+17.1 +10.7 66 +17 +18 1014.4 980.9
14 17.09 н/о н/о +16.4 +10.7 69 1014.1 980.5
15 17.09 З 2 н/о н/о +17.0 +10.8 67 +17 +17 1013.6 980.1
16 17.09 н/о н/о +17.4 +11.7 69 1013.2 979.7
17 17.09 н/о н/о +16.2 +12.0 76 1013.3 979.7
18 17.09 З 2 н/о н/о +15.3 +12.1 81 +15 +15 1014.0 980.2 +18.0
19 17.09 н/о н/о +15.1 +12.0 82 1014.4 980.6
20 17.09 н/о н/о +14.8 +12.3 85 1015.1 981.3
21 17.09 З 4 н/о н/о +14.6 +11.2 80 +13 +13 1015.3 981.4
22 17.09 З 3 н/о н/о +14.1 +10.1 77 +13 +13 1016.1 982.1
23 17.09 н/о н/о +14.0 +10.2 78 1016.8 982.7
00 18.09 СЗ 3 н/о н/о +13.3 +5.5 59 +12 +12 1017.4 983.3
01 18.09 СЗ 3 н/о н/о +12.8 +4.8 58 +12 +12 1017.6 983.4
02 18.09 СЗ 4 н/о н/о +12.1 +3.4 55 +10 +10 1018.4 984.1
03 18.09 З 4 н/о н/о +11.0 +3.3 59 +9 +9 1019.4 984.9
04 18.09 СЗ 3 н/о н/о +10.0 +3.5 64 +8 +8 1020.3 985.7
05 18.09 СЗ 4 55 км 3/1 1200 м
[Sc Ac lent Ci fib]
+9.4 +2.0 60 +7 +7 1021.5 986.7
06 18.09 З 4 55 км 3/1 1200 м
[Sc Ac lent Ci fib]
+9.9 +2.3 59 +8 +8 1022.0 987.3 +9.1
07 18.09 СЗ 4 50 км 3/1 1000 м
[Cu Sc Ac lent Ci fib]
+11.7 +2.2 52 +10 +11 1022.6 988.1
08 18.09 З 4 55 км 1/1 1080 м
[Cu hum Ci fib]
+12.8 +2.4 49 +11 +14 1023.2 988.7
09 18.09 З 4 55 км 1/1 1080 м
[Cu hum Ci fib]
+13.4 +2.6 48 +12 +17 1023.2 988.9
10 18.09 СЗ 3 55 км 1/1 1200 м
[Cu hum Ci fib]
+15.0 +2.2 42 +14 +21 1023.3 989.1
11 18.09 СЗ 4 60 км 1/1 1380 м
[Cu hum Ci fib]
+15.7 +0.7 36 +15 +21 1023.0 988.9
12 18.09 З 4 65 км 1/1 1500 м
[Cu hum Ci fib]
+16.5 -0.6 31 +16 +22 1022.5 988.5
13 18.09 СЗ 3 70 км 1/1 1500 м
[Cu hum Ci fib]
+17.3 -0.9 29 +17 +23 1022.1 988.2
14 18.09 СЗ 4 н/о н/о +17.2 -1.9 27 +17 +17 1022.0 988.1
15 18.09 н/о н/о +17.0 -2.6 26 1021.6 987.7
16 18.09 н/о н/о +16.1 -1.4 30 1021.7 987.7
17 18.09 С 2 н/о н/о +12.9 -0.4 40 +13 +13 1022.2 987.8
18 18.09 С 3 н/о н/о +11.3 +0.4 47 +10 +10 1023.1 988.5 +17.7
19 18.09 С 3 н/о н/о +11.1 +0.5 48 +10 +10 1023.8 989.1
20 18.09 С 3 н/о н/о +10.7 +0.7 50 +9 +9 1024.0 989.3
21 18.09 С 2 н/о н/о +10.5 +1.1 52 +10 +10 1024.3 989.5
22 18.09 СЗ 2 н/о н/о +11.7 +1.4 49 +11 +11 1024.2 989.5
23 18.09 н/о н/о +11.6 +1.0 48 1024.2 989.5
00 19.09 СЗ 2 н/о н/о +11.3 +0.7 48 +11 +11 1024.3 989.7
01 19.09 СЗ 2 н/о н/о +11.2 +0.9 49 +10 +10 1024.1 989.4
02 19.09 СЗ 3 н/о н/о +10.5 +1.8 55 +9 +9 1024.2 989.4
03 19.09 СЗ 3 н/о н/о +10.1 +2.0 57 +8 +8 1024.4 989.5
04 19.09 СЗ 3 н/о н/о +9.4 +2.5 62 +7 +7 1024.6 989.7
05 19.09 СЗ 3 40 км 6/0
[Ac lent Ci fib]
+9.2 +2.8 64 +7 +7 1025.1 990.2
06 19.09 СЗ 3 35 км 1/0 2000 м
[Ac lent Ci sp]
+10.4 +3.0 60 +9 +9 1025.4 990.6 +9.2
07 19.09 СЗ 3 40 км 1/0
[Ac cast Ci sp]
+11.2 +3.5 59 +10 +12 1025.8 991.1
08 19.09 СЗ 4 45 км 1/1 900 м
[Cu hum Ac lent Ci sp]
+12.1 +4.3 59 +10 +14 1026.0 991.4
09 19.09 СВ 2 50 км 1/1 1000 м
[Cu hum Ac lent Ci sp]
+13.8 +4.1 52 +13 +20 1026.1 991.7
10 19.09 СЗ 3 55 км 4/4 1200 м
[Cu hum Ci fib]
+14.5 +3.9 49 +14 +18 1025.9 991.5
11 19.09 СЗ 4 60 км 4/4 1300 м
[Cu hum Ci fib]
+15.8 +1.5 38 +15 +19 1025.4 991.3
12 19.09 нст 4 60 км 3/3 1380 м
[Cu hum]
+15.4 -0.4 34 +15 +19 1025.5 991.3
13 19.09 н/о н/о +16.7 0.0 32 1025.4 991.3
14 19.09 СЗ 3 н/о н/о +15.1 -0.2 35 +15 +15 1025.4 991.1
15 19.09 н/о н/о +15.4 +1.5 39 1025.2 991.0
16 19.09 СЗ 4 н/о н/о +13.5 +0.9 42 +12 +12 1025.7 991.3
17 19.09 СЗ 2 н/о н/о +12.1 +0.2 44 +12 +12 1026.3 991.7
18 19.09 С 3 н/о н/о +11.0 +0.7 49 +10 +10 1027.1 992.3 +16.8
19 19.09 СЗ 3 н/о н/о +10.8 +0.2 48 +9 +9 1027.4 992.6
20 19.09 СЗ 3 н/о н/о +10.2 +0.2 50 +9 +9 1028.2 993.3
21 19.09 С 4 н/о н/о +9.5 +0.4 53 +7 +7 1028.4 993.4
22 19.09 СЗ 3 н/о н/о +9.4 +0.8 55 +7 +7 1028.4 993.4
23 19.09 н/о н/о +8.0 +1.2 62 1028.6 993.4
00 20.09 СЗ 3 н/о н/о +8.3 +1.2 61 +6 +6 1028.6 993.4
01 20.09 СЗ 3 н/о н/о +8.5 +1.6 62 +6 +6 1028.4 993.3
02 20.09 СЗ 3 н/о н/о +8.0 +1.6 64 +6 +6 1028.5 993.3
03 20.09 СЗ 3 н/о н/о +7.8 +1.4 64 +5 +5 1028.4 993.1
04 20.09 СЗ 3 н/о н/о +7.8 +1.6 65 +5 +5 1028.5 993.3
05 20.09 СЗ 4 н/о н/о +8.0 +1.8 65 +5 +5 1028.5 993.3
06 20.09 СЗ 3 н/о н/о +10.0 +2.1 58 +8 +8 1028.6 993.7 +7.7
07 20.09 СЗ 3 н/о н/о +11.9 +2.9 54 +11 +11 1028.8 994.1
08 20.09 н/о н/о +13.2 +3.6 52 1029.1 994.5
09 20.09 н/о н/о +15.2 +4.9 50 1028.7 994.3
10 20.09 н/о н/о +15.6 +2.8 42 1028.4 994.1
11 20.09 н/о н/о +16.3 +2.4 39 1027.9 993.7
12 20.09 н/о н/о +16.6 +3.0 40 1027.3 993.1
13 20.09 н/о н/о +16.8 +1.7 36 1027.0 992.9
14 20.09 н/о н/о +16.8 +2.0 37 1026.7 992.6
15 20.09 н/о н/о +16.5 +1.4 36 1026.6 992.5
16 20.09 С 1 н/о н/о +14.9 +2.8 44 +16 +16 1026.6 992.3
17 20.09 С 1 н/о н/о +12.1 +2.0 50 +12 +12 1027.0 992.3
18 20.09 СВ 1 н/о н/о +11.2 +1.4 51 +11 +11 1027.4 992.6 +17.3
19 20.09 ЮЗ 1 н/о н/о +10.8 +0.8 50 +11 +11 1027.7 992.9
20 20.09 н/о н/о +11.0 +1.0 50 1027.8 993.0
21 20.09 н/о н/о +11.2 +1.2 50 1027.9 993.1
22 20.09 н/о н/о +10.7 +1.3 52 1027.9 993.0
23 20.09 н/о н/о +9.9 +1.5 56 1027.8 992.9
00 21.09 С 2 н/о н/о +9.5 +1.9 59 +8 +8 1027.9 992.9
01 21.09 н/о н/о +9.8 +1.4 56 1027.7 992.7
02 21.09 н/о н/о +9.4 +1.6 58 1027.5 992.5
03 21.09 н/о н/о +7.3 +2.2 70 1027.7 992.5
04 21.09 СВ 2 н/о н/о +7.9 +2.0 66 +6 +6 1027.2 992.1
05 21.09 СВ 2 н/о н/о +8.1 +1.9 65 +6 +6 1027.4 992.2
06 21.09 СВ 3 н/о н/о +9.1 +2.4 63 +7 +7 1027.4 992.3 +7.3
07 21.09 С 2 н/о н/о +9.9 +3.8 66 +9 +9 1027.7 992.7
08 21.09 н/о н/о +12.4 +5.6 63 1027.5 992.9
09 21.09 н/о н/о +14.4 +5.0 53 1027.0 992.6
10 21.09 н/о н/о +16.0 +5.0 48 1026.5 992.3
11 21.09 н/о н/о +18.5 +4.0 38 1025.5 991.7
12 21.09 н/о н/о +19.2 +3.0 34 1024.9 991.1
13 21.09 н/о н/о +19.8 +2.7 32 1024.3 990.6
14 21.09 н/о н/о +19.6 +2.9 33 1023.8 990.1
15 21.09 н/о н/о +18.9 +2.7 34 1023.3 989.5
16 21.09 н/о н/о +17.4 +3.0 38 1023.2 989.3
17 21.09 н/о н/о +15.4 +3.6 45 1023.0 988.9
18 21.09 нст 2 н/о н/о +14.6 +3.4 47 +14 +14 1023.5 989.3 +20.1
19 21.09 н/о н/о +14.0 +3.5 49 1023.3 989.0
20 21.09 н/о н/о +13.5 +3.6 51 1023.1 988.7
21 21.09 н/о н/о +11.4 +3.9 60 1023.1 988.5
22 21.09 н/о н/о +12.4 +3.6 55 1022.7 988.2
23 21.09 н/о н/о +11.9 +3.9 58 1022.3 987.8
00 22.09 нст 2 н/о н/о +9.8 +4.2 68 +8 +8 1022.0 987.3
01 22.09 н/о н/о +9.2 +4.0 70 1021.8 987.0
02 22.09 н/о н/о +9.5 +3.7 67 1021.2 986.5
03 22.09 н/о н/о +7.8 +3.3 73 1021.2 986.2
05 22.09 н/о н/о +7.3 +2.8 73 1020.7 985.7
06 22.09 СВ 3 н/о н/о +8.0 +3.1 71 +5 +5 1020.5 985.5 +6.9
07 22.09 н/о н/о +10.4 +3.2 61 1020.4 985.8
08 22.09 В 4 н/о н/о +13.8 +3.0 48 +13 +13 1019.5 985.3
09 22.09 н/о н/о +16.6 +3.7 42 1018.3 984.5
10 22.09 н/о н/о +18.1 +3.6 38 1017.6 983.9
11 22.09 н/о н/о +19.7 +3.4 34 1016.4 983.0

 

Местоположение метеостанции Братислава-Колиба (Словакия): широта 48.17 долгота 17.12 высота над уровнем моря 288 м.

В архиве по умолчанию представлена погода в Братислава-Колибе за последнюю неделю. Архивные данные за месяц целиком и за предыдущие месяцы, начиная с января 2011 года, Вы можете получить, выбрав интересующий диапазон дат из раскрывающегося списка и нажав кнопку "Ввод!".


*Определитесь, кто Вы:
робот инопланетянин человек

Внимание! Время в таблицах - всемирное. Для получения местного времени необходимо прибавить поправку, которая равна 1 ч.

Смотрите также архив погоды в соседних городах и на ближайших метеорологических станциях:

Погода в Братиславе (Словакия) (7 км)
Погода в Малом Яровнику (Словакия) (9 км)
Погода в Малацки (Словакия) (26 км)
Погода в Зверндорф-Маршег (Австрия) (28 км)
Погода в Нойзидль-ам-Зе (Австрия) (32 км)
Погода в Нойзидль-ам-Зе (Австрия) (33 км)
Погода в Мошонмадьяроваре (Венгрия) (34 км)
Погода в Грос-Энцерсдорфе (Австрия) (41 км)
Погода в Вене аэропорт (Австрия) (41 км)
Погода в Андау (Австрия) (45 км)

Пояснения к столбцам:

Ветер - указаны скорость ветра в м/с - средняя за 10 мин, порывы в срок и между сроками (в фигурных скобках) и направление, откуда дует ветер: С - северный, СВ - северо-восточный, В - восточный, ЮВ - юго-восточный, Ю - южный, ЮЗ - юго-западный, З - западный, СЗ - северо-западный.
Видимость - горизонтальная дальность видимости в метрах или километрах. При видимости от 1 до 10 км при отсутствии осадков обычно наблюдается дымка, при ухудшении видимости до 1 км и менее - туман. В сухую погоду видимость может ухудшаться дымом, пылью или мглою.
Явления - указаны атмосферные явления, наблюдавшиеся в срок или в последний час перед сроком; фигурными скобками обозначены явления, наблюдавшиеся между сроками (за 1-3 часа до срока); квадратными скобками обозначены град или гололедные отложения с указанием их диаметра в мм.
Облачность - указаны через наклонную черту общая и нижняя облачность в баллах и высота нижней границы облаков в метрах; квадратными скобками обозначены формы облаков: Ci - перистые, Cs - перисто-слоистые, Cc - перисто-кучевые, Ac - высококучевые, As - высокослоистые, Sc - слоисто-кучевые, Ns - слоисто-дождевые, Cu - кучевые, Cb - кучево-дождевые. Подробнее классификацию облаков см. в Атласе облаков (PDF).
T - Температура воздуха - температура, измеренная на высоте 2 м над землей.
Td - Температура точки росы - температура, при понижении до которой содержащийся в воздухе водяной пар достигнет насыщения.
f - Относительная влажность воздуха - влажноcть воздуха, измеренная на высоте 2 м над землей.
Te - Эффективная температура - температура, которую ощущает одетый по сезону человек в тени. Характеристика душности погоды. При расчете учитывается влияние влажности воздуха и скорости ветра на теплоощущения человека.
Tes - Эффективная температура на солнце - температура, которую ощущает человек, с поправкой на солнечный нагрев. Характеристика знойности погоды. Зависит от высоты солнца над горизонтом, облачности и скорости ветра. Ночью, в пасмурную погоду, а также при ветре 12 м/с и более поправка равна нулю.
P - Атмосферное давление - приведенное к уровню моря атмосферное давление.
Po - Атмосферное давление - измеренное на уровне метеостанции атмосферное давление.
Tmin - Минимальная температура - минимум температуры воздуха на высоте 2 м над землей.
Tmax - Максимальная температура - максимум температуры воздуха на высоте 2 м над землей.
R - Количество осадков - Количество выпавших осадков за период времени, мм. При наведении курсора мыши на число - период времени, за который выпало указанное количество осадков.
R24 - Количество осадков - Количество выпавших осадков за 24 часа, мм.
S - Снежный покров - Высота снежного покрова, см. При наведении курсора мыши на число - состояние снежного покрова и степень покрытия местности в баллах.